Location: Newark
(25.6108°S, 54.5803°W)
Time: 21:14:57
(UTC+00:00)

Courier 1B - Pass Details

Date: 03 November 2020
Orbit: 962 x 1209 km, 28.3° (Epoch: 24 November)

Event Time Altitude Azimuth Distance (km) Brightness Sun altitude
Rises 05:11:42 0° 257° (WSW) 4,066 - -41.2°
Reaches altitude 10° 05:14:34 10° 261° (W) 3,123 - -40.8°
Maximum altitude 05:22:13 59° 338° (NNW) 1,378 - -39.8°
Exits shadow 05:29:54 10° 55° (NE) 3,129 10.2 -38.6°
Drops below altitude 10° 05:29:54 10° 55° (NE) 3,130 10.2 -38.6°
Sets 05:32:46 0° 58° (ENE) 4,076 10.8 -38.2°
